Tracking 27122 objects as of 25-Mar-2023
HD Live streaming from Space Station
objects crossing your sky now

STARLINK-4383

Track STARLINK-4383 now!
10-day predictions
STARLINK-4383 is classified as:


NORAD ID: 53473
Int'l Code: 2022-099J
Perigee: 568.5 km
Apogee: 571.9 km
Inclination: 97.7 °
Period: 95.9 minutes
Semi major axis: 6941 km
RCS: Unknown
Launch date: August 12, 2022
Source: United States (US)
Launch site: AIR FORCE WESTERN TEST RANGE (AFWTR)
Your satellite tracking list
Your tracking list is empty




NASA's NSSDC Master Catalog

Two Line Element Set (TLE):
1 53473U 22099J   23083.87799805 -.00007814  00000-0 -60466-3 0  9990
2 53473  97.6552 206.1744 0002406 123.1580 236.9876 15.01245230 33824
Source of the keplerian elements: AFSPC